Time,TemperatureF,DewpointF,PressureIn,WindDirection,WindDirectionDegrees,WindSpeedMPH,WindSpeedGustMPH,Humidity,HourlyPrecipIn,Conditions,Clouds,dailyrainin,SoftwareType,DateUTC
2013-02-17 00:02:00,41.0,38.6,30.27,SE,145,1.0,1.0,91,0.00,,,0.22,Wunderground v.1.15,2013-02-17 08:02:00,
2013-02-17 00:08:00,41.1,38.7,30.27,SE,146,0.0,4.0,91,0.00,,,0.22,Wunderground v.1.15,2013-02-17 08:08:00,
2013-02-17 00:13:00,41.1,38.4,30.27,SSE,147,0.0,2.0,90,0.00,,,0.22,Wunderground v.1.15,2013-02-17 08:13:00,
2013-02-17 00:19:00,41.0,38.3,30.27,SSE,152,1.0,1.0,90,0.00,,,0.22,Wunderground v.1.15,2013-02-17 08:19:00,
2013-02-17 00:24:00,41.1,38.4,30.27,SSE,150,0.0,2.0,90,0.00,,,0.22,Wunderground v.1.15,2013-02-17 08:24:00,
2013-02-17 00:30:00,41.1,38.4,30.28,SSE,153,0.0,0.0,90,0.00,,,0.22,Wunderground v.1.15,2013-02-17 08:30:00,
2013-02-17 00:36:00,41.1,38.4,30.28,SSE,157,0.0,0.0,90,0.00,,,0.22,Wunderground v.1.15,2013-02-17 08:36:00,
2013-02-17 00:41:00,41.2,38.2,30.28,SSE,158,0.0,0.0,89,0.00,,,0.22,Wunderground v.1.15,2013-02-17 08:41:00,
2013-02-17 00:47:00,41.2,38.2,30.28,SSE,163,0.0,0.0,89,0.00,,,0.22,Wunderground v.1.15,2013-02-17 08:47:00,
2013-02-17 00:52:00,41.2,38.2,30.28,South,171,1.0,1.0,89,0.00,,,0.22,Wunderground v.1.15,2013-02-17 08:52:00,
2013-02-17 00:58:00,41.2,37.9,30.28,SSW,209,1.0,3.0,88,0.00,,,0.22,Wunderground v.1.15,2013-02-17 08:58:00,
2013-02-17 01:03:00,41.2,37.6,30.28,SSW,192,0.0,1.0,87,0.00,,,0.22,Wunderground v.1.15,2013-02-17 09:03:00,
2013-02-17 01:09:00,41.2,37.3,30.28,SW,214,0.0,0.0,86,0.00,,,0.22,Wunderground v.1.15,2013-02-17 09:09:00,
2013-02-17 01:14:00,41.3,37.4,30.28,SSW,194,3.0,3.0,86,0.00,,,0.22,Wunderground v.1.15,2013-02-17 09:14:00,
2013-02-17 01:20:00,41.3,37.1,30.28,SSW,209,0.0,1.0,85,0.00,,,0.22,Wunderground v.1.15,2013-02-17 09:20:00,
2013-02-17 01:25:00,41.3,37.1,30.28,South,188,0.0,2.0,85,0.00,,,0.22,Wunderground v.1.15,2013-02-17 09:25:00,
2013-02-17 01:31:00,41.3,37.1,30.28,SSW,204,0.0,1.0,85,0.00,,,0.22,Wunderground v.1.15,2013-02-17 09:31:00,
2013-02-17 01:37:00,41.3,36.8,30.28,South,188,0.0,1.0,84,0.00,,,0.22,Wunderground v.1.15,2013-02-17 09:37:00,
2013-02-17 01:42:00,41.3,36.8,30.28,SSW,213,3.0,3.0,84,0.00,,,0.22,Wunderground v.1.15,2013-02-17 09:42:00,
2013-02-17 01:48:00,41.3,36.8,30.29,SSW,200,1.0,3.0,84,0.00,,,0.22,Wunderground v.1.15,2013-02-17 09:48:00,
2013-02-17 01:53:00,41.3,36.8,30.29,SSW,207,0.0,2.0,84,0.00,,,0.22,Wunderground v.1.15,2013-02-17 09:53:00,
2013-02-17 01:59:00,41.2,36.7,30.29,SSW,192,1.0,1.0,84,0.00,,,0.22,Wunderground v.1.15,2013-02-17 09:59:00,
2013-02-17 02:04:00,41.2,36.7,30.29,SSW,192,0.0,2.0,84,0.00,,,0.22,Wunderground v.1.15,2013-02-17 10:04:00,
2013-02-17 02:09:00,41.1,36.6,30.29,South,190,0.0,0.0,84,0.00,,,0.22,Wunderground v.1.15,2013-02-17 10:09:00,
2013-02-17 02:14:00,41.1,36.6,30.29,SSW,200,0.0,5.0,84,0.00,,,0.22,Wunderground v.1.15,2013-02-17 10:14:00,
2013-02-17 02:19:00,41.1,36.6,30.29,South,184,0.0,1.0,84,0.00,,,0.22,Wunderground v.1.15,2013-02-17 10:19:00,
2013-02-17 02:24:00,41.1,36.6,30.29,SSW,196,0.0,2.0,84,0.00,,,0.00,Wunderground v.1.15,2013-02-17 10:24:00,
2013-02-17 02:29:00,41.1,36.6,30.29,SSW,209,0.0,1.0,84,0.00,,,0.00,Wunderground v.1.15,2013-02-17 10:29:00,
2013-02-17 02:34:00,41.1,36.6,30.29,South,173,0.0,3.0,84,0.00,,,0.00,Wunderground v.1.15,2013-02-17 10:34:00,
2013-02-17 02:39:00,41.2,36.4,30.29,South,182,1.0,3.0,83,0.00,,,0.00,Wunderground v.1.15,2013-02-17 10:39:00,
2013-02-17 02:44:00,41.2,36.4,30.29,SW,217,0.0,10.0,83,0.00,,,0.00,Wunderground v.1.15,2013-02-17 10:44:00,
2013-02-17 02:49:00,41.3,36.5,30.29,SSW,202,0.0,1.0,83,0.00,,,0.00,Wunderground v.1.15,2013-02-17 10:49:00,
2013-02-17 02:54:00,41.3,36.5,30.29,South,184,0.0,4.0,83,0.00,,,0.00,Wunderground v.1.15,2013-02-17 10:54:00,
2013-02-17 02:59:00,41.4,36.6,30.29,SW,214,0.0,2.0,83,0.00,,,0.00,Wunderground v.1.15,2013-02-17 10:59:00,
2013-02-17 03:04:00,41.4,36.3,30.29,SSW,205,0.0,14.0,82,0.00,,,0.00,Wunderground v.1.15,2013-02-17 11:04:00,
2013-02-17 03:09:00,41.4,36.3,30.28,South,189,2.0,2.0,82,0.00,,,0.00,Wunderground v.1.15,2013-02-17 11:09:00,
2013-02-17 03:14:00,41.5,36.4,30.29,SSE,160,3.0,6.0,82,0.00,,,0.00,Wunderground v.1.15,2013-02-17 11:14:00,
2013-02-17 03:19:00,41.5,36.4,30.28,SW,224,6.0,6.0,82,0.00,,,0.00,Wunderground v.1.15,2013-02-17 11:19:00,
2013-02-17 03:24:00,41.5,36.4,30.28,SSW,212,0.0,6.0,82,0.00,,,0.00,Wunderground v.1.15,2013-02-17 11:24:00,
2013-02-17 03:29:00,41.5,36.4,30.29,SSW,205,0.0,2.0,82,0.00,,,0.00,Wunderground v.1.15,2013-02-17 11:29:00,
2013-02-17 03:34:00,41.5,36.4,30.29,SSW,196,2.0,6.0,82,0.00,,,0.00,Wunderground v.1.15,2013-02-17 11:34:00,
2013-02-17 03:39:00,41.4,36.3,30.29,SSW,207,0.0,2.0,82,0.00,,,0.00,Wunderground v.1.15,2013-02-17 11:39:00,
2013-02-17 03:44:00,41.4,36.3,30.29,SSW,200,2.0,5.0,82,0.00,,,0.00,Wunderground v.1.15,2013-02-17 11:44:00,
2013-02-17 03:49:00,41.4,36.3,30.29,South,170,0.0,4.0,82,0.00,,,0.00,Wunderground v.1.15,2013-02-17 11:49:00,
2013-02-17 03:54:00,41.3,36.2,30.29,SW,234,4.0,7.0,82,0.00,,,0.00,Wunderground v.1.15,2013-02-17 11:54:00,
2013-02-17 03:59:00,41.3,36.2,30.28,SW,234,1.0,7.0,82,0.00,,,0.00,Wunderground v.1.15,2013-02-17 11:59:00,
2013-02-17 04:04:00,41.3,36.2,30.28,South,188,5.0,9.0,82,0.00,,,0.00,Wunderground v.1.15,2013-02-17 12:04:00,
2013-02-17 04:09:00,41.3,36.2,30.28,SW,228,4.0,7.0,82,0.00,,,0.00,Wunderground v.1.15,2013-02-17 12:09:00,
2013-02-17 04:14:00,41.3,36.2,30.29,SW,222,3.0,11.0,82,0.00,,,0.00,Wunderground v.1.15,2013-02-17 12:14:00,
2013-02-17 04:19:00,41.2,36.1,30.28,SSW,204,4.0,4.0,82,0.00,,,0.00,Wunderground v.1.15,2013-02-17 12:19:00,
2013-02-17 04:25:00,41.2,36.1,30.29,SSW,212,0.0,8.0,82,0.00,,,0.00,Wunderground v.1.15,2013-02-17 12:25:00,
2013-02-17 04:30:00,41.2,36.1,30.29,SSW,199,0.0,2.0,82,0.00,,,0.00,Wunderground v.1.15,2013-02-17 12:30:00,
2013-02-17 04:35:00,41.1,36.0,30.29,South,185,0.0,8.0,82,0.00,,,0.00,Wunderground v.1.15,2013-02-17 12:35:00,
2013-02-17 04:40:00,41.1,36.0,30.29,SSW,196,0.0,3.0,82,0.00,,,0.00,Wunderground v.1.15,2013-02-17 12:40:00,
2013-02-17 04:45:00,41.1,36.0,30.29,South,191,1.0,6.0,82,0.00,,,0.00,Wunderground v.1.15,2013-02-17 12:45:00,
2013-02-17 04:50:00,41.1,36.0,30.29,SSW,207,1.0,6.0,82,0.00,,,0.00,Wunderground v.1.15,2013-02-17 12:50:00,
2013-02-17 04:55:00,41.1,36.0,30.29,South,185,0.0,6.0,82,0.00,,,0.00,Wunderground v.1.15,2013-02-17 12:55:00,
2013-02-17 05:00:00,41.1,36.0,30.28,SSW,210,2.0,4.0,82,0.00,,,0.00,Wunderground v.1.15,2013-02-17 13:00:00,
2013-02-17 05:05:00,41.0,35.9,30.29,SSW,209,2.0,6.0,82,0.00,,,0.00,Wunderground v.1.15,2013-02-17 13:05:00,
2013-02-17 05:10:00,41.0,35.9,30.29,South,172,2.0,3.0,82,0.00,,,0.00,Wunderground v.1.15,2013-02-17 13:10:00,
2013-02-17 05:15:00,41.0,35.9,30.29,SW,225,0.0,11.0,82,0.00,,,0.00,Wunderground v.1.15,2013-02-17 13:15:00,
2013-02-17 05:20:00,41.0,35.9,30.29,SW,215,2.0,7.0,82,0.00,,,0.00,Wunderground v.1.15,2013-02-17 13:20:00,
2013-02-17 05:25:00,41.0,35.9,30.29,SW,214,5.0,9.0,82,0.00,,,0.00,Wunderground v.1.15,2013-02-17 13:25:00,
2013-02-17 05:30:00,41.0,37.1,30.29,South,190,9.0,9.0,86,0.00,,,0.00,Wunderground v.1.15,2013-02-17 13:30:00,
2013-02-17 05:35:00,41.0,35.6,30.29,SW,231,5.0,10.0,81,0.00,,,0.00,Wunderground v.1.15,2013-02-17 13:35:00,
2013-02-17 05:40:00,41.0,35.9,30.29,SSW,204,0.0,11.0,82,0.00,,,0.00,Wunderground v.1.15,2013-02-17 13:40:00,
2013-02-17 05:45:00,40.9,35.8,30.29,South,178,2.0,11.0,82,0.00,,,0.00,Wunderground v.1.15,2013-02-17 13:45:00,
2013-02-17 05:50:00,40.9,35.8,30.29,South,175,1.0,6.0,82,0.00,,,0.00,Wunderground v.1.15,2013-02-17 13:50:00,
2013-02-17 05:55:00,40.9,35.8,30.30,SSW,211,0.0,9.0,82,0.00,,,0.00,Wunderground v.1.15,2013-02-17 13:55:00,
2013-02-17 06:00:00,40.9,35.8,30.30,SW,221,5.0,6.0,82,0.00,,,0.00,Wunderground v.1.15,2013-02-17 14:00:00,
2013-02-17 06:05:00,40.8,35.7,30.30,SW,219,5.0,10.0,82,0.00,,,0.00,Wunderground v.1.15,2013-02-17 14:05:00,
2013-02-17 06:10:00,40.8,35.7,30.29,SSW,205,1.0,3.0,82,0.00,,,0.00,Wunderground v.1.15,2013-02-17 14:10:00,
2013-02-17 06:15:00,40.8,35.7,30.29,SW,218,0.0,5.0,82,0.00,,,0.00,Wunderground v.1.15,2013-02-17 14:15:00,
2013-02-17 06:20:00,40.7,35.6,30.29,SSW,212,3.0,5.0,82,0.00,,,0.00,Wunderground v.1.15,2013-02-17 14:20:00,
2013-02-17 06:25:00,40.7,35.3,30.29,SW,232,1.0,9.0,81,0.00,,,0.00,Wunderground v.1.15,2013-02-17 14:25:00,
2013-02-17 06:30:00,40.7,35.3,30.29,SSW,205,2.0,5.0,81,0.00,,,0.00,Wunderground v.1.15,2013-02-17 14:30:00,
2013-02-17 06:35:00,40.7,35.3,30.29,South,170,0.0,7.0,81,0.00,,,0.00,Wunderground v.1.15,2013-02-17 14:35:00,
2013-02-17 06:41:00,40.7,35.3,30.29,SSW,206,0.0,4.0,81,0.00,,,0.00,Wunderground v.1.15,2013-02-17 14:41:00,
2013-02-17 06:46:00,40.7,35.3,30.29,SSW,202,2.0,5.0,81,0.00,,,0.00,Wunderground v.1.15,2013-02-17 14:46:00,
2013-02-17 06:51:00,40.7,35.3,30.28,SSW,192,0.0,7.0,81,0.00,,,0.00,Wunderground v.1.15,2013-02-17 14:51:00,
2013-02-17 06:56:00,40.7,35.3,30.28,SSW,209,5.0,7.0,81,0.00,,,0.00,Wunderground v.1.15,2013-02-17 14:56:00,
2013-02-17 07:01:00,40.7,35.3,30.28,SSW,198,2.0,6.0,81,0.00,,,0.00,Wunderground v.1.15,2013-02-17 15:01:00,
2013-02-17 07:06:00,40.7,35.3,30.29,SSE,167,2.0,10.0,81,0.00,,,0.00,Wunderground v.1.15,2013-02-17 15:06:00,
2013-02-17 07:11:00,40.7,35.3,30.29,South,184,0.0,2.0,81,0.00,,,0.00,Wunderground v.1.15,2013-02-17 15:11:00,
2013-02-17 07:16:00,40.7,35.3,30.28,South,175,0.0,3.0,81,0.00,,,0.00,Wunderground v.1.15,2013-02-17 15:16:00,
2013-02-17 07:21:00,40.7,35.3,30.29,South,180,3.0,3.0,81,0.00,,,0.00,Wunderground v.1.15,2013-02-17 15:21:00,
2013-02-17 07:26:00,40.7,35.3,30.29,SSW,212,0.0,6.0,81,0.00,,,0.00,Wunderground v.1.15,2013-02-17 15:26:00,
2013-02-17 07:31:00,40.7,35.3,30.29,SSW,205,1.0,1.0,81,0.00,,,0.00,Wunderground v.1.15,2013-02-17 15:31:00,
2013-02-17 07:36:00,40.7,35.6,30.29,South,182,0.0,5.0,82,0.00,,,0.00,Wunderground v.1.15,2013-02-17 15:36:00,
2013-02-17 07:41:00,40.6,35.2,30.29,SSW,202,0.0,5.0,81,0.00,,,0.00,Wunderground v.1.15,2013-02-17 15:41:00,
2013-02-17 07:46:00,40.6,35.2,30.29,SSE,166,2.0,6.0,81,0.00,,,0.00,Wunderground v.1.15,2013-02-17 15:46:00,
2013-02-17 07:51:00,40.6,35.2,30.29,South,186,0.0,8.0,81,0.00,,,0.00,Wunderground v.1.15,2013-02-17 15:51:00,
2013-02-17 07:56:00,40.6,35.2,30.29,SSW,206,0.0,10.0,81,0.00,,,0.00,Wunderground v.1.15,2013-02-17 15:56:00,
2013-02-17 08:01:00,40.6,35.2,30.30,SSW,213,0.0,5.0,81,0.00,,,0.00,Wunderground v.1.15,2013-02-17 16:01:00,
2013-02-17 08:06:00,40.7,35.3,30.30,SSW,197,2.0,8.0,81,0.00,,,0.00,Wunderground v.1.15,2013-02-17 16:06:00,
2013-02-17 08:11:00,40.7,35.3,30.31,WSW,246,0.0,5.0,81,0.00,,,0.00,Wunderground v.1.15,2013-02-17 16:11:00,
2013-02-17 08:17:00,40.7,35.3,30.31,SSW,213,6.0,9.0,81,0.00,,,0.00,Wunderground v.1.15,2013-02-17 16:17:00,
2013-02-17 08:22:00,40.7,35.3,30.31,SW,231,3.0,10.0,81,0.00,,,0.00,Wunderground v.1.15,2013-02-17 16:22:00,
2013-02-17 08:27:00,40.8,35.4,30.31,SSW,196,0.0,10.0,81,0.00,,,0.00,Wunderground v.1.15,2013-02-17 16:27:00,
2013-02-17 08:32:00,40.8,35.4,30.30,SW,228,4.0,7.0,81,0.00,,,0.00,Wunderground v.1.15,2013-02-17 16:32:00,
2013-02-17 08:37:00,40.8,35.4,30.30,SSW,213,3.0,10.0,81,0.00,,,0.00,Wunderground v.1.15,2013-02-17 16:37:00,
2013-02-17 08:42:00,40.7,35.3,30.30,South,188,0.0,13.0,81,0.00,,,0.00,Wunderground v.1.15,2013-02-17 16:42:00,
2013-02-17 08:47:00,40.7,35.3,30.31,South,189,1.0,13.0,81,0.00,,,0.00,Wunderground v.1.15,2013-02-17 16:47:00,
2013-02-17 08:52:00,40.7,35.3,30.31,SSE,164,0.0,9.0,81,0.00,,,0.00,Wunderground v.1.15,2013-02-17 16:52:00,
2013-02-17 08:57:00,40.7,35.3,30.31,SSW,209,0.0,9.0,81,0.00,,,0.00,Wunderground v.1.15,2013-02-17 16:57:00,
2013-02-17 09:02:00,40.7,35.3,30.31,SSW,198,2.0,4.0,81,0.00,,,0.00,Wunderground v.1.15,2013-02-17 17:02:00,
2013-02-17 09:07:00,40.7,35.3,30.31,South,178,1.0,5.0,81,0.00,,,0.00,Wunderground v.1.15,2013-02-17 17:07:00,
2013-02-17 09:12:00,40.7,35.3,30.31,South,172,1.0,4.0,81,0.00,,,0.00,Wunderground v.1.15,2013-02-17 17:12:00,
2013-02-17 09:17:00,40.7,35.3,30.31,SSW,213,0.0,6.0,81,0.00,,,0.00,Wunderground v.1.15,2013-02-17 17:17:00,
2013-02-17 09:22:00,40.8,35.4,30.31,South,180,3.0,3.0,81,0.00,,,0.00,Wunderground v.1.15,2013-02-17 17:22:00,
2013-02-17 09:27:00,40.8,35.4,30.31,SW,224,3.0,5.0,81,0.00,,,0.00,Wunderground v.1.15,2013-02-17 17:27:00,
2013-02-17 09:32:00,40.9,35.5,30.31,SW,215,4.0,4.0,81,0.00,,,0.00,Wunderground v.1.15,2013-02-17 17:32:00,
2013-02-17 09:37:00,40.8,35.1,30.31,SSW,205,4.0,7.0,80,0.00,,,0.00,Wunderground v.1.15,2013-02-17 17:37:00,
2013-02-17 09:42:00,40.9,35.2,30.31,South,182,0.0,4.0,80,0.00,,,0.00,Wunderground v.1.15,2013-02-17 17:42:00,
2013-02-17 09:47:00,40.9,35.5,30.31,SSW,192,0.0,5.0,81,0.00,,,0.00,Wunderground v.1.15,2013-02-17 17:47:00,
2013-02-17 09:52:00,40.9,35.5,30.31,SW,218,3.0,7.0,81,0.00,,,0.00,Wunderground v.1.15,2013-02-17 17:52:00,
2013-02-17 09:57:00,41.0,35.3,30.31,SSW,198,6.0,7.0,80,0.00,,,0.00,Wunderground v.1.15,2013-02-17 17:57:00,
2013-02-17 10:02:00,41.0,35.3,30.31,SW,216,1.0,5.0,80,0.00,,,0.00,Wunderground v.1.15,2013-02-17 18:02:00,
2013-02-17 10:07:00,41.0,35.0,30.31,South,189,0.0,10.0,79,0.00,,,0.00,Wunderground v.1.15,2013-02-17 18:07:00,
2013-02-17 10:12:00,41.1,35.1,30.31,WSW,238,0.0,8.0,79,0.00,,,0.00,Wunderground v.1.15,2013-02-17 18:12:00,
2013-02-17 10:17:00,41.1,35.1,30.31,SW,223,6.0,11.0,79,0.00,,,0.00,Wunderground v.1.15,2013-02-17 18:17:00,
2013-02-17 10:22:00,41.1,35.4,30.31,SSW,192,7.0,11.0,80,0.00,,,0.00,Wunderground v.1.15,2013-02-17 18:22:00,
2013-02-17 10:28:00,41.1,35.4,30.32,SSE,155,2.0,11.0,80,0.00,,,0.00,Wunderground v.1.15,2013-02-17 18:28:00,
2013-02-17 10:33:00,41.1,35.7,30.32,SW,228,1.0,7.0,81,0.00,,,0.00,Wunderground v.1.15,2013-02-17 18:33:00,
2013-02-17 10:38:00,41.0,35.6,30.32,SW,235,2.0,9.0,81,0.00,,,0.00,Wunderground v.1.15,2013-02-17 18:38:00,
2013-02-17 10:43:00,40.9,35.5,30.31,WSW,251,2.0,8.0,81,0.00,,,0.00,Wunderground v.1.15,2013-02-17 18:43:00,
2013-02-17 10:48:00,40.9,35.8,30.31,WSW,241,0.0,8.0,82,0.00,,,0.00,Wunderground v.1.15,2013-02-17 18:48:00,
2013-02-17 10:53:00,40.9,35.5,30.31,SSW,206,6.0,6.0,81,0.00,,,0.00,Wunderground v.1.15,2013-02-17 18:53:00,
2013-02-17 10:58:00,41.0,35.6,30.31,SSW,204,2.0,7.0,81,0.00,,,0.00,Wunderground v.1.15,2013-02-17 18:58:00,
2013-02-17 11:03:00,41.0,35.9,30.31,South,182,0.0,6.0,82,0.00,,,0.00,Wunderground v.1.15,2013-02-17 19:03:00,
2013-02-17 11:08:00,41.0,36.2,30.31,SSW,201,0.0,6.0,83,0.00,,,0.00,Wunderground v.1.15,2013-02-17 19:08:00,
2013-02-17 11:13:00,41.0,36.2,30.31,SW,220,5.0,6.0,83,0.00,,,0.00,Wunderground v.1.15,2013-02-17 19:13:00,
2013-02-17 11:18:00,40.9,36.7,30.31,West,265,4.0,8.0,85,0.00,,,0.00,Wunderground v.1.15,2013-02-17 19:18:00,
2013-02-17 11:23:00,40.6,37.0,30.31,SSW,212,1.0,5.0,87,0.00,,,0.00,Wunderground v.1.15,2013-02-17 19:23:00,
2013-02-17 11:28:00,40.5,36.9,30.31,SW,216,0.0,5.0,87,0.00,,,0.01,Wunderground v.1.15,2013-02-17 19:28:00,
2013-02-17 11:33:00,40.5,37.2,30.31,SSW,213,0.0,1.0,88,0.00,,,0.01,Wunderground v.1.15,2013-02-17 19:33:00,
2013-02-17 11:38:00,40.5,37.2,30.31,SSW,213,0.0,3.0,88,0.00,,,0.01,Wunderground v.1.15,2013-02-17 19:38:00,
2013-02-17 11:43:00,40.5,37.2,30.31,SW,222,0.0,4.0,88,0.00,,,0.01,Wunderground v.1.15,2013-02-17 19:43:00,
2013-02-17 11:48:00,40.6,37.6,30.30,SW,215,0.0,4.0,89,0.00,,,0.01,Wunderground v.1.15,2013-02-17 19:48:00,
2013-02-17 11:53:00,40.7,37.7,30.30,SW,215,0.0,1.0,89,0.00,,,0.01,Wunderground v.1.15,2013-02-17 19:53:00,
2013-02-17 11:58:00,40.7,37.7,30.30,SW,215,0.0,3.0,89,0.00,,,0.01,Wunderground v.1.15,2013-02-17 19:58:00,
2013-02-17 12:03:00,40.7,37.4,30.30,SSW,213,0.0,2.0,88,0.00,,,0.01,Wunderground v.1.15,2013-02-17 20:03:00,
2013-02-17 12:08:00,40.9,37.6,30.30,SSW,213,0.0,2.0,88,0.00,,,0.01,Wunderground v.1.15,2013-02-17 20:08:00,
2013-02-17 12:13:00,41.1,37.8,30.30,SSW,212,0.0,0.0,88,0.00,,,0.01,Wunderground v.1.15,2013-02-17 20:13:00,
2013-02-17 12:18:00,41.4,38.1,30.29,SSW,209,0.0,0.0,88,0.00,,,0.01,Wunderground v.1.15,2013-02-17 20:18:00,
2013-02-17 12:23:00,41.6,38.0,30.29,SSW,209,0.0,0.0,87,0.00,,,0.01,Wunderground v.1.15,2013-02-17 20:23:00,
2013-02-17 12:28:00,41.6,38.0,30.29,SSW,208,0.0,0.0,87,0.00,,,0.01,Wunderground v.1.15,2013-02-17 20:28:00,
2013-02-17 12:33:00,41.6,37.7,30.29,SW,217,0.0,5.0,86,0.00,,,0.02,Wunderground v.1.15,2013-02-17 20:33:00,
2013-02-17 12:38:00,42.1,38.2,30.29,SSW,211,2.0,6.0,86,0.00,,,0.02,Wunderground v.1.15,2013-02-17 20:38:00,
2013-02-17 12:43:00,42.5,38.3,30.28,SW,217,0.0,6.0,85,0.00,,,0.02,Wunderground v.1.15,2013-02-17 20:43:00,
2013-02-17 12:48:00,43.1,38.9,30.29,SSW,212,0.0,6.0,85,0.00,,,0.02,Wunderground v.1.15,2013-02-17 20:48:00,
2013-02-17 12:53:00,42.8,38.3,30.29,SW,226,4.0,4.0,84,0.00,,,0.02,Wunderground v.1.15,2013-02-17 20:53:00,
2013-02-17 12:58:00,43.0,38.2,30.29,SW,227,0.0,4.0,83,0.00,,,0.02,Wunderground v.1.15,2013-02-17 20:58:00,
2013-02-17 13:03:00,43.0,38.5,30.29,SW,227,0.0,0.0,84,0.00,,,0.02,Wunderground v.1.15,2013-02-17 21:03:00,
2013-02-17 13:09:00,43.1,38.3,30.29,SW,227,0.0,0.0,83,0.00,,,0.02,Wunderground v.1.15,2013-02-17 21:09:00,
2013-02-17 13:14:00,43.4,38.6,30.28,SW,227,0.0,0.0,83,0.00,,,0.02,Wunderground v.1.15,2013-02-17 21:14:00,
2013-02-17 13:19:00,43.6,38.8,30.28,SW,227,0.0,0.0,83,0.00,,,0.02,Wunderground v.1.15,2013-02-17 21:19:00,
2013-02-17 13:24:00,43.0,38.2,30.28,SW,226,1.0,1.0,83,0.00,,,0.02,Wunderground v.1.15,2013-02-17 21:24:00,
2013-02-17 13:29:00,43.0,38.5,30.28,SW,221,0.0,0.0,84,0.00,,,0.02,Wunderground v.1.15,2013-02-17 21:29:00,
2013-02-17 13:34:00,43.2,38.7,30.28,SSW,202,0.0,0.0,84,0.00,,,0.02,Wunderground v.1.15,2013-02-17 21:34:00,
2013-02-17 13:39:00,43.2,38.7,30.28,South,190,0.0,0.0,84,0.00,,,0.02,Wunderground v.1.15,2013-02-17 21:39:00,
2013-02-17 13:44:00,43.3,38.8,30.28,South,190,0.0,0.0,84,0.00,,,0.02,Wunderground v.1.15,2013-02-17 21:44:00,
2013-02-17 13:49:00,43.1,38.3,30.28,South,185,0.0,0.0,83,0.00,,,0.02,Wunderground v.1.15,2013-02-17 21:49:00,
2013-02-17 13:54:00,43.1,38.3,30.28,South,185,0.0,0.0,83,0.00,,,0.02,Wunderground v.1.15,2013-02-17 21:54:00,
2013-02-17 13:59:00,43.1,38.0,30.28,South,185,0.0,0.0,82,0.00,,,0.02,Wunderground v.1.15,2013-02-17 21:59:00,
2013-02-17 14:04:00,43.1,38.3,30.28,South,180,0.0,0.0,83,0.00,,,0.02,Wunderground v.1.15,2013-02-17 22:04:00,
2013-02-17 14:09:00,43.1,38.3,30.28,South,175,0.0,1.0,83,0.00,,,0.02,Wunderground v.1.15,2013-02-17 22:09:00,
2013-02-17 14:14:00,43.1,38.0,30.28,South,175,0.0,1.0,82,0.00,,,0.02,Wunderground v.1.15,2013-02-17 22:14:00,
2013-02-17 14:19:00,43.2,38.1,30.27,South,175,0.0,1.0,82,0.00,,,0.02,Wunderground v.1.15,2013-02-17 22:19:00,
2013-02-17 14:24:00,43.4,38.3,30.27,South,175,0.0,1.0,82,0.00,,,0.02,Wunderground v.1.15,2013-02-17 22:24:00,
2013-02-17 14:29:00,43.5,38.1,30.27,South,175,1.0,1.0,81,0.00,,,0.02,Wunderground v.1.15,2013-02-17 22:29:00,
2013-02-17 14:34:00,43.5,38.1,30.27,South,175,0.0,1.0,81,0.00,,,0.02,Wunderground v.1.15,2013-02-17 22:34:00,
2013-02-17 14:39:00,43.5,38.1,30.27,South,175,0.0,0.0,81,0.00,,,0.02,Wunderground v.1.15,2013-02-17 22:39:00,
2013-02-17 14:44:00,43.9,38.8,30.27,South,175,0.0,0.0,82,0.00,,,0.02,Wunderground v.1.15,2013-02-17 22:44:00,
2013-02-17 14:49:00,43.9,38.8,30.27,South,178,0.0,0.0,82,0.00,,,0.02,Wunderground v.1.15,2013-02-17 22:49:00,
2013-02-17 14:54:00,44.0,38.9,30.27,South,178,0.0,0.0,82,0.00,,,0.02,Wunderground v.1.15,2013-02-17 22:54:00,
2013-02-17 14:59:00,43.9,38.4,30.27,South,178,0.0,0.0,81,0.00,,,0.02,Wunderground v.1.15,2013-02-17 22:59:00,
2013-02-17 15:04:00,44.3,39.2,30.27,South,178,0.0,0.0,82,0.00,,,0.02,Wunderground v.1.15,2013-02-17 23:04:00,
2013-02-17 15:09:00,44.3,39.2,30.27,South,178,0.0,0.0,82,0.00,,,0.02,Wunderground v.1.15,2013-02-17 23:09:00,
2013-02-17 15:14:00,44.1,38.6,30.27,South,178,0.0,0.0,81,0.00,,,0.02,Wunderground v.1.15,2013-02-17 23:14:00,
2013-02-17 15:19:00,44.2,39.1,30.27,South,178,0.0,0.0,82,0.00,,,0.02,Wunderground v.1.15,2013-02-17 23:19:00,
2013-02-17 15:24:00,44.1,38.6,30.27,South,178,0.0,0.0,81,0.00,,,0.02,Wunderground v.1.15,2013-02-17 23:24:00,
2013-02-17 15:29:00,44.0,38.2,30.27,South,180,0.0,0.0,80,0.00,,,0.02,Wunderground v.1.15,2013-02-17 23:29:00,
2013-02-17 15:34:00,44.2,38.1,30.26,SSW,203,0.0,5.0,79,0.00,,,0.02,Wunderground v.1.15,2013-02-17 23:34:00,
2013-02-17 15:39:00,44.4,38.3,30.26,SSW,207,0.0,1.0,79,0.00,,,0.02,Wunderground v.1.15,2013-02-17 23:39:00,
2013-02-17 15:44:00,44.5,38.1,30.26,SW,225,0.0,6.0,78,0.00,,,0.02,Wunderground v.1.15,2013-02-17 23:44:00,
2013-02-17 15:49:00,44.3,37.5,30.26,SW,225,0.0,1.0,77,0.00,,,0.02,Wunderground v.1.15,2013-02-17 23:49:00,
2013-02-17 15:55:00,44.3,37.2,30.26,SW,225,0.0,1.0,76,0.00,,,0.02,Wunderground v.1.15,2013-02-17 23:55:00,
2013-02-17 16:00:00,44.3,37.2,30.25,SW,225,0.0,0.0,76,0.00,,,0.02,Wunderground v.1.15,2013-02-18 00:00:00,
2013-02-17 16:05:00,44.5,37.4,30.25,SW,225,0.0,0.0,76,0.00,,,0.02,Wunderground v.1.15,2013-02-18 00:05:00,
2013-02-17 16:10:00,44.8,37.4,30.25,SW,225,0.0,0.0,75,0.00,,,0.02,Wunderground v.1.15,2013-02-18 00:10:00,
2013-02-17 16:15:00,45.0,37.6,30.25,SW,225,0.0,0.0,75,0.00,,,0.02,Wunderground v.1.15,2013-02-18 00:15:00,
2013-02-17 16:20:00,44.9,37.8,30.25,SW,221,0.0,0.0,76,0.00,,,0.02,Wunderground v.1.15,2013-02-18 00:20:00,
2013-02-17 16:25:00,44.8,38.0,30.25,SW,219,0.0,0.0,77,0.00,,,0.02,Wunderground v.1.15,2013-02-18 00:25:00,
2013-02-17 16:30:00,44.7,37.9,30.24,SW,218,0.0,0.0,77,0.00,,,0.02,Wunderground v.1.15,2013-02-18 00:30:00,
2013-02-17 16:35:00,44.7,37.9,30.24,SW,218,0.0,0.0,77,0.00,,,0.02,Wunderground v.1.15,2013-02-18 00:35:00,
2013-02-17 16:40:00,44.6,38.2,30.24,SW,218,0.0,0.0,78,0.00,,,0.02,Wunderground v.1.15,2013-02-18 00:40:00,
2013-02-17 16:45:00,44.6,38.2,30.24,SW,218,0.0,0.0,78,0.00,,,0.02,Wunderground v.1.15,2013-02-18 00:45:00,
2013-02-17 16:50:00,44.6,38.2,30.23,SW,217,0.0,0.0,78,0.00,,,0.02,Wunderground v.1.15,2013-02-18 00:50:00,
2013-02-17 16:55:00,44.5,38.1,30.24,SW,217,0.0,0.0,78,0.00,,,0.02,Wunderground v.1.15,2013-02-18 00:55:00,
2013-02-17 17:00:00,44.4,38.0,30.23,SW,217,0.0,0.0,78,0.00,,,0.02,Wunderground v.1.15,2013-02-18 01:00:00,
2013-02-17 17:05:00,44.4,38.3,30.24,SW,217,0.0,0.0,79,0.00,,,0.02,Wunderground v.1.15,2013-02-18 01:05:00,
2013-02-17 17:10:00,44.3,38.2,30.24,SW,217,0.0,0.0,79,0.00,,,0.02,Wunderground v.1.15,2013-02-18 01:10:00,
2013-02-17 17:15:00,44.3,38.2,30.23,SW,217,0.0,0.0,79,0.00,,,0.02,Wunderground v.1.15,2013-02-18 01:15:00,
2013-02-17 17:20:00,44.2,38.1,30.24,SW,217,0.0,0.0,79,0.00,,,0.02,Wunderground v.1.15,2013-02-18 01:20:00,
2013-02-17 17:25:00,44.1,37.7,30.24,SW,217,0.0,0.0,78,0.00,,,0.02,Wunderground v.1.15,2013-02-18 01:25:00,
2013-02-17 17:30:00,44.0,37.6,30.23,SW,217,0.0,0.0,78,0.00,,,0.02,Wunderground v.1.15,2013-02-18 01:30:00,
2013-02-17 17:35:00,44.0,37.6,30.23,SW,217,0.0,0.0,78,0.00,,,0.02,Wunderground v.1.15,2013-02-18 01:35:00,
2013-02-17 17:40:00,43.9,37.5,30.23,SW,217,0.0,0.0,78,0.00,,,0.02,Wunderground v.1.15,2013-02-18 01:40:00,
2013-02-17 17:46:00,43.8,37.4,30.23,SW,217,0.0,0.0,78,0.00,,,0.02,Wunderground v.1.15,2013-02-18 01:46:00,
2013-02-17 17:51:00,43.6,37.2,30.23,SW,217,0.0,0.0,78,0.00,,,0.02,Wunderground v.1.15,2013-02-18 01:51:00,
2013-02-17 17:56:00,43.5,37.1,30.22,SW,217,0.0,0.0,78,0.00,,,0.02,Wunderground v.1.15,2013-02-18 01:56:00,
2013-02-17 18:01:00,43.4,37.3,30.22,SW,217,0.0,0.0,79,0.00,,,0.02,Wunderground v.1.15,2013-02-18 02:01:00,
2013-02-17 18:06:00,43.3,37.5,30.23,SW,217,0.0,0.0,80,0.00,,,0.02,Wunderground v.1.15,2013-02-18 02:06:00,
2013-02-17 18:11:00,43.1,37.3,30.23,SW,217,0.0,0.0,80,0.00,,,0.02,Wunderground v.1.15,2013-02-18 02:11:00,
2013-02-17 18:16:00,43.0,37.3,30.22,SW,217,0.0,0.0,80,0.00,,,0.02,Wunderground v.1.15,2013-02-18 02:16:00,
2013-02-17 18:21:00,42.8,37.1,30.23,SW,217,0.0,0.0,80,0.00,,,0.02,Wunderground v.1.15,2013-02-18 02:21:00,
2013-02-17 18:26:00,42.7,37.0,30.22,SW,217,0.0,0.0,80,0.00,,,0.02,Wunderground v.1.15,2013-02-18 02:26:00,
2013-02-17 18:31:00,42.5,36.8,30.22,SW,217,0.0,0.0,80,0.00,,,0.02,Wunderground v.1.15,2013-02-18 02:31:00,
2013-02-17 18:36:00,42.4,37.0,30.22,SW,217,0.0,0.0,81,0.00,,,0.02,Wunderground v.1.15,2013-02-18 02:36:00,
2013-02-17 18:41:00,42.3,37.2,30.22,SW,217,0.0,0.0,82,0.00,,,0.02,Wunderground v.1.15,2013-02-18 02:41:00,
2013-02-17 18:46:00,42.2,37.4,30.22,SW,217,0.0,0.0,83,0.00,,,0.02,Wunderground v.1.15,2013-02-18 02:46:00,
2013-02-17 18:51:00,42.1,37.3,30.23,SW,217,0.0,0.0,83,0.00,,,0.02,Wunderground v.1.15,2013-02-18 02:51:00,
2013-02-17 18:56:00,42.0,37.2,30.23,SW,217,0.0,0.0,83,0.00,,,0.02,Wunderground v.1.15,2013-02-18 02:56:00,
2013-02-17 19:01:00,41.9,37.1,30.23,SW,217,0.0,0.0,83,0.00,,,0.02,Wunderground v.1.15,2013-02-18 03:01:00,
2013-02-17 19:07:00,41.8,37.3,30.23,SW,217,0.0,0.0,84,0.00,,,0.02,Wunderground v.1.15,2013-02-18 03:07:00,
2013-02-17 19:12:00,41.6,37.1,30.23,SW,217,0.0,0.0,84,0.00,,,0.02,Wunderground v.1.15,2013-02-18 03:12:00,
2013-02-17 19:17:00,41.6,37.4,30.23,SW,217,0.0,0.0,85,0.00,,,0.02,Wunderground v.1.15,2013-02-18 03:17:00,
2013-02-17 19:22:00,41.5,37.3,30.23,SW,218,0.0,0.0,85,0.00,,,0.02,Wunderground v.1.15,2013-02-18 03:22:00,
2013-02-17 19:27:00,41.5,37.3,30.23,SW,218,0.0,0.0,85,0.00,,,0.02,Wunderground v.1.15,2013-02-18 03:27:00,
2013-02-17 19:32:00,41.4,37.5,30.23,SW,218,0.0,0.0,86,0.00,,,0.02,Wunderground v.1.15,2013-02-18 03:32:00,
2013-02-17 19:37:00,41.3,37.4,30.23,SW,218,0.0,0.0,86,0.00,,,0.02,Wunderground v.1.15,2013-02-18 03:37:00,
2013-02-17 19:42:00,41.3,37.4,30.23,SW,218,0.0,0.0,86,0.00,,,0.02,Wunderground v.1.15,2013-02-18 03:42:00,
2013-02-17 19:47:00,41.2,37.3,30.23,SW,218,0.0,0.0,86,0.00,,,0.02,Wunderground v.1.15,2013-02-18 03:47:00,
2013-02-17 19:52:00,41.2,37.3,30.23,SW,218,0.0,0.0,86,0.00,,,0.02,Wunderground v.1.15,2013-02-18 03:52:00,
2013-02-17 19:57:00,41.2,37.3,30.23,SW,218,0.0,0.0,86,0.00,,,0.02,Wunderground v.1.15,2013-02-18 03:57:00,
2013-02-17 20:02:00,41.2,37.6,30.23,SW,218,0.0,0.0,87,0.00,,,0.02,Wunderground v.1.15,2013-02-18 04:02:00,
2013-02-17 20:07:00,41.4,37.5,30.23,SW,221,6.0,6.0,86,0.00,,,0.02,Wunderground v.1.15,2013-02-18 04:07:00,
2013-02-17 20:12:00,41.7,37.5,30.23,SW,215,0.0,5.0,85,0.00,,,0.02,Wunderground v.1.15,2013-02-18 04:12:00,
2013-02-17 20:17:00,41.9,37.1,30.22,SSW,210,0.0,5.0,83,0.00,,,0.02,Wunderground v.1.15,2013-02-18 04:17:00,
2013-02-17 20:22:00,42.0,36.9,30.23,SSW,209,0.0,2.0,82,0.00,,,0.02,Wunderground v.1.15,2013-02-18 04:22:00,
2013-02-17 20:27:00,42.2,36.8,30.23,SSW,209,0.0,2.0,81,0.00,,,0.02,Wunderground v.1.15,2013-02-18 04:27:00,
2013-02-17 20:32:00,42.2,36.8,30.23,SSW,209,0.0,0.0,81,0.00,,,0.02,Wunderground v.1.15,2013-02-18 04:32:00,
2013-02-17 20:37:00,42.3,36.9,30.22,SSW,209,0.0,0.0,81,0.00,,,0.02,Wunderground v.1.15,2013-02-18 04:37:00,
2013-02-17 20:42:00,42.3,36.9,30.22,SSW,209,0.0,0.0,81,0.00,,,0.02,Wunderground v.1.15,2013-02-18 04:42:00,
2013-02-17 20:47:00,42.3,36.9,30.22,SSW,209,0.0,0.0,81,0.00,,,0.02,Wunderground v.1.15,2013-02-18 04:47:00,
2013-02-17 20:52:00,42.3,36.9,30.22,SSW,209,0.0,0.0,81,0.00,,,0.02,Wunderground v.1.15,2013-02-18 04:52:00,
2013-02-17 20:57:00,42.3,36.9,30.22,SSW,209,0.0,0.0,81,0.00,,,0.02,Wunderground v.1.15,2013-02-18 04:57:00,
2013-02-17 21:00:00,42.2,36.8,30.22,SSW,209,0.0,0.0,81,0.00,,,0.02,Wunderground v.1.15,2013-02-18 05:00:00,
2013-02-17 21:05:00,42.2,36.8,30.22,SSW,209,0.0,0.0,81,0.00,,,0.02,Wunderground v.1.15,2013-02-18 05:05:00,
2013-02-17 21:10:00,42.2,36.8,30.23,SSW,209,0.0,0.0,81,0.00,,,0.02,Wunderground v.1.15,2013-02-18 05:10:00,
2013-02-17 21:15:00,42.2,36.8,30.23,SSW,209,0.0,0.0,81,0.00,,,0.02,Wunderground v.1.15,2013-02-18 05:15:00,
2013-02-17 21:20:00,42.1,36.7,30.22,SSW,209,0.0,0.0,81,0.00,,,0.02,Wunderground v.1.15,2013-02-18 05:20:00,
2013-02-17 21:25:00,42.1,37.0,30.22,SSW,209,0.0,0.0,82,0.00,,,0.02,Wunderground v.1.15,2013-02-18 05:25:00,
2013-02-17 21:30:00,42.0,36.9,30.22,SSW,209,0.0,0.0,82,0.00,,,0.02,Wunderground v.1.15,2013-02-18 05:30:00,
2013-02-17 21:36:00,42.0,36.9,30.22,SSW,209,0.0,0.0,82,0.00,,,0.02,Wunderground v.1.15,2013-02-18 05:36:00,
2013-02-17 21:41:00,41.9,36.8,30.22,SSW,209,0.0,0.0,82,0.00,,,0.02,Wunderground v.1.15,2013-02-18 05:41:00,
2013-02-17 21:46:00,41.9,37.1,30.22,SSW,209,0.0,0.0,83,0.00,,,0.02,Wunderground v.1.15,2013-02-18 05:46:00,
2013-02-17 21:51:00,41.9,37.4,30.22,SSW,209,0.0,0.0,84,0.00,,,0.02,Wunderground v.1.15,2013-02-18 05:51:00,
2013-02-17 21:56:00,41.9,37.7,30.22,SSW,210,0.0,0.0,85,0.00,,,0.02,Wunderground v.1.15,2013-02-18 05:56:00,
2013-02-17 22:01:00,41.8,37.9,30.21,SSW,210,0.0,0.0,86,0.00,,,0.02,Wunderground v.1.15,2013-02-18 06:01:00,
2013-02-17 22:06:00,41.7,38.1,30.21,SSW,210,0.0,0.0,87,0.00,,,0.02,Wunderground v.1.15,2013-02-18 06:06:00,
2013-02-17 22:11:00,41.6,38.0,30.21,SSW,210,0.0,0.0,87,0.00,,,0.02,Wunderground v.1.15,2013-02-18 06:11:00,
2013-02-17 22:16:00,41.5,37.9,30.21,SSW,210,0.0,0.0,87,0.00,,,0.02,Wunderground v.1.15,2013-02-18 06:16:00,
2013-02-17 22:21:00,41.4,38.1,30.21,SSW,209,0.0,0.0,88,0.00,,,0.02,Wunderground v.1.15,2013-02-18 06:21:00,
2013-02-17 22:26:00,41.4,38.1,30.21,SSW,210,0.0,0.0,88,0.00,,,0.02,Wunderground v.1.15,2013-02-18 06:26:00,
2013-02-17 22:31:00,41.3,38.0,30.21,SSW,210,0.0,0.0,88,0.00,,,0.02,Wunderground v.1.15,2013-02-18 06:31:00,
2013-02-17 22:36:00,41.3,38.0,30.21,SSW,210,0.0,0.0,88,0.00,,,0.02,Wunderground v.1.15,2013-02-18 06:36:00,
2013-02-17 22:41:00,41.2,38.2,30.21,SSW,210,0.0,0.0,89,0.00,,,0.02,Wunderground v.1.15,2013-02-18 06:41:00,
2013-02-17 22:46:00,41.2,38.2,30.20,SSW,210,0.0,0.0,89,0.00,,,0.02,Wunderground v.1.15,2013-02-18 06:46:00,
2013-02-17 22:51:00,41.1,38.1,30.20,SSW,209,0.0,0.0,89,0.00,,,0.02,Wunderground v.1.15,2013-02-18 06:51:00,
2013-02-17 22:57:00,41.1,38.1,30.20,SSW,210,0.0,0.0,89,0.00,,,0.02,Wunderground v.1.15,2013-02-18 06:57:00,
2013-02-17 23:02:00,41.1,38.1,30.20,SSW,210,0.0,0.0,89,0.00,,,0.02,Wunderground v.1.15,2013-02-18 07:02:00,
2013-02-17 23:07:00,41.1,38.1,30.19,SSW,209,0.0,0.0,89,0.00,,,0.02,Wunderground v.1.15,2013-02-18 07:07:00,
2013-02-17 23:12:00,41.0,38.0,30.19,SSW,210,0.0,0.0,89,0.00,,,0.02,Wunderground v.1.15,2013-02-18 07:12:00,
2013-02-17 23:17:00,40.9,37.9,30.19,SSW,205,0.0,1.0,89,0.00,,,0.02,Wunderground v.1.15,2013-02-18 07:17:00,
2013-02-17 23:22:00,40.7,37.7,30.19,SSW,200,0.0,1.0,89,0.00,,,0.02,Wunderground v.1.15,2013-02-18 07:22:00,
2013-02-17 23:27:00,40.7,37.7,30.19,SSW,196,0.0,2.0,89,0.00,,,0.02,Wunderground v.1.15,2013-02-18 07:27:00,
2013-02-17 23:32:00,40.7,37.7,30.18,SSW,196,0.0,0.0,89,0.00,,,0.02,Wunderground v.1.15,2013-02-18 07:32:00,
2013-02-17 23:37:00,40.7,37.4,30.18,SSW,196,0.0,0.0,88,0.00,,,0.02,Wunderground v.1.15,2013-02-18 07:37:00,
2013-02-17 23:42:00,40.7,37.4,30.18,SSW,196,0.0,0.0,88,0.00,,,0.02,Wunderground v.1.15,2013-02-18 07:42:00,
2013-02-17 23:47:00,40.8,37.5,30.18,SSW,196,0.0,0.0,88,0.00,,,0.02,Wunderground v.1.15,2013-02-18 07:47:00,
2013-02-17 23:52:00,40.8,37.5,30.18,SSW,196,0.0,0.0,88,0.00,,,0.02,Wunderground v.1.15,2013-02-18 07:52:00,
2013-02-17 23:57:00,40.9,37.6,30.18,SSW,196,0.0,0.0,88,0.00,,,0.02,Wunderground v.1.15,2013-02-18 07:57:00,